TimeCDT,TemperatureF,Dew PointF,Humidity,Sea Level PressureIn,VisibilityMPH,Wind Direction,Wind SpeedMPH,Gust SpeedMPH,PrecipitationIn,Events,Conditions,WindDirDegrees,DateUTC
12:53 AM,66.9,64.0,90,30.00,10.0,SSE,5.8,-,N/A,,Clear,160,2013-07-25 05:53:00
1:53 AM,66.9,64.0,90,29.97,10.0,SSE,6.9,-,N/A,,Clear,160,2013-07-25 06:53:00
2:53 AM,66.0,63.0,90,29.94,10.0,SSE,5.8,-,N/A,,Clear,150,2013-07-25 07:53:00
3:53 AM,64.9,61.0,87,29.94,10.0,SE,3.5,-,N/A,,Clear,140,2013-07-25 08:53:00
4:53 AM,62.1,60.1,93,29.95,10.0,SE,4.6,-,N/A,,Clear,140,2013-07-25 09:53:00
5:53 AM,63.0,60.1,90,29.96,10.0,SE,3.5,-,N/A,,Partly Cloudy,130,2013-07-25 10:53:00
6:53 AM,62.1,60.1,93,29.96,10.0,South,3.5,-,N/A,,Clear,180,2013-07-25 11:53:00
7:53 AM,64.9,62.1,90,29.99,10.0,WSW,8.1,-,N/A,,Clear,250,2013-07-25 12:53:00
8:53 AM,71.1,63.0,75,29.98,10.0,WNW,12.7,-,N/A,,Clear,290,2013-07-25 13:53:00
9:53 AM,73.9,64.9,73,29.98,10.0,NW,6.9,-,N/A,,Clear,320,2013-07-25 14:53:00
10:53 AM,73.0,63.0,71,29.99,10.0,North,9.2,-,N/A,,Partly Cloudy,350,2013-07-25 15:53:00
11:53 AM,73.0,61.0,66,29.99,10.0,North,8.1,-,N/A,,Clear,350,2013-07-25 16:53:00
12:53 PM,73.9,60.1,62,29.99,10.0,NNE,6.9,-,N/A,,Scattered Clouds,30,2013-07-25 17:53:00
1:53 PM,78.1,61.0,56,30.00,10.0,North,6.9,-,N/A,,Partly Cloudy,10,2013-07-25 18:53:00
2:53 PM,80.1,60.1,50,30.01,10.0,North,13.8,24.2,N/A,,Mostly Cloudy,350,2013-07-25 19:53:00
3:53 PM,79.0,57.0,47,30.02,10.0,NNE,8.1,-,N/A,,Partly Cloudy,30,2013-07-25 20:53:00
4:53 PM,80.1,57.0,45,30.01,10.0,NE,5.8,-,N/A,,Clear,50,2013-07-25 21:53:00
5:53 PM,81.0,55.0,41,29.99,10.0,NE,3.5,-,N/A,,Clear,50,2013-07-25 22:53:00
6:53 PM,81.0,55.9,42,29.98,10.0,Calm,Calm,-,N/A,,Clear,0,2013-07-25 23:53:00
7:53 PM,77.0,59.0,54,29.99,10.0,South,3.5,-,N/A,,Partly Cloudy,170,2013-07-26 00:53:00
8:53 PM,75.0,57.9,55,29.99,10.0,South,3.5,-,N/A,,Mostly Cloudy,180,2013-07-26 01:53:00
9:53 PM,73.0,59.0,61,30.01,10.0,NNW,5.8,-,N/A,,Clear,340,2013-07-26 02:53:00
10:53 PM,66.9,61.0,81,30.04,10.0,NNE,5.8,-,N/A,,Clear,20,2013-07-26 03:53:00
11:53 PM,64.0,60.1,87,30.07,10.0,NNE,8.1,-,N/A,,Clear,30,2013-07-26 04:53:00